{"data":{"norad_id":30580,"epoch":"2026-09-15T07:01:01.211232Z","epoch_age_seconds":468156,"freshness":"STALE","line1":"1 30580U 07004A   26258.29237513 -.00000463  00000+0  00000+0 0  9994","line2":"2 30580   9.3149 101.7950 8334487 216.9749  37.5186  0.87844123 42072","mean_motion":0.87844123,"eccentricity":0.8334487,"inclination_deg":9.3149,"raan_deg":101.795,"arg_perigee_deg":216.9749,"mean_anomaly_deg":37.5186,"bstar":0,"rev_number":4207,"period_min":1639.2673189987,"perigee_km":1292.0872370652,"apogee_km":78058.08569028,"semimajor_km":46053.223463673,"source":"CELESTRAK","updated_at":"2026-09-20T09:00:13.649164Z"}}